When you browse on this site, cookies collect data to enhance your experience and personalize the content and advertising you see.
Visit our Privacy Policy to learn more. By continuing to use the site, you agree to this use of cookies and data.
  • In Deutschland
  • Länderverzeichnis
  • Für 7 Tage
  • Wassertemperatur
  • Satellitenkarten
  • Wetterkarte
  • Widgets
  • user-avatar
    Anmelden

    Stündliche Wetter Fier

    Heute, 25 April, Donnerstag

    Zeit Temperatur Niederschläge Wind Luftdruck Luftfeuchtigkeit
    00:00 +18°C° 0 mm 1 m/S 764 mmHg 65%
    01:00 +16°C° 0 mm 1 m/S 764 mmHg 66%
    02:00 +16°C° 0 mm 1 m/S 764 mmHg 66%
    03:00 +16°C° 0 mm 1 m/S 764 mmHg 66%
    04:00 +16°C° 0 mm 1 m/S 764 mmHg 66%
    05:00 +19°C° 0 mm 1 m/S 764 mmHg 63%
    06:00 +20°C° 0 mm 1 m/S 764 mmHg 61%
    07:00 +22°C° 0 mm 1 m/S 764 mmHg 58%
    08:00 +23°C° 0 mm 1 m/S 764 mmHg 54%
    09:00 +24°C° 0 mm 1 m/S 764 mmHg 50%
    10:00 +26°C° 0 mm 2 m/S 764 mmHg 47%
    11:00 +26°C° 0 mm 2 m/S 764 mmHg 48%
    12:00 +26°C° 0 mm 2 m/S 764 mmHg 49%
    13:00 +27°C° 0 mm 3 m/S 764 mmHg 51%
    14:00 +26°C° 0 mm 3 m/S 764 mmHg 55%
    15:00 +25°C° 0 mm 3 m/S 764 mmHg 59%
    16:00 +24°C° 0 mm 3 m/S 764 mmHg 63%
    17:00 +21°C° 0 mm 2 m/S 764 mmHg 68%
    18:00 +20°C° 0 mm 2 m/S 764 mmHg 73%
    19:00 +19°C° 0 mm 1 m/S 764 mmHg 78%
    20:00 +19°C° 0 mm 1 m/S 764 mmHg 79%
    21:00 +19°C° 0 mm 1 m/S 764 mmHg 79%
    22:00 +18°C° 0 mm 1 m/S 764 mmHg 80%
    23:00 +18°C° 0 mm 1 m/S 764 mmHg 79%

    Morgen, 26 April, Freitag

    Zeit Temperatur Niederschläge Wind Luftdruck Luftfeuchtigkeit
    00:00 +18°C° 0 mm 1 m/S 764 mmHg 78%
    01:00 +18°C° 0 mm 1 m/S 764 mmHg 77%
    02:00 +18°C° 0 mm 1 m/S 764 mmHg 77%
    03:00 +18°C° 0 mm 1 m/S 763 mmHg 76%
    04:00 +18°C° 0 mm 1 m/S 763 mmHg 75%
    05:00 +19°C° 0 mm 1 m/S 763 mmHg 71%
    06:00 +21°C° 0 mm 1 m/S 763 mmHg 66%
    07:00 +22°C° 0 mm 1 m/S 763 mmHg 62%
    08:00 +24°C° 0 mm 1 m/S 763 mmHg 57%
    09:00 +25°C° 0 mm 2 m/S 763 mmHg 52%
    10:00 +27°C° 0 mm 2 m/S 763 mmHg 48%
    11:00 +27°C° 0 mm 2 m/S 762 mmHg 47%
    12:00 +28°C° 0 mm 3 m/S 762 mmHg 47%
    13:00 +28°C° 0 mm 3 m/S 762 mmHg 47%
    14:00 +27°C° 0 mm 3 m/S 761 mmHg 49%
    15:00 +27°C° 0 mm 3 m/S 761 mmHg 51%
    16:00 +26°C° 0 mm 3 m/S 760 mmHg 52%
    17:00 +24°C° 0 mm 2 m/S 761 mmHg 57%
    18:00 +22°C° 0 mm 1 m/S 761 mmHg 63%
    19:00 +20°C° 0 mm 1 m/S 761 mmHg 68%
    20:00 +20°C° 0 mm 1 m/S 761 mmHg 69%
    21:00 +20°C° 0 mm 1 m/S 761 mmHg 71%
    22:00 +20°C° 0 mm 1 m/S 761 mmHg 72%
    23:00 +18°C° 0 mm 2 m/S 761 mmHg 73%

    übermorgen, 27 April, Samstag

    Zeit Temperatur Niederschläge Wind Luftdruck Luftfeuchtigkeit
    00:00 +18°C° 0 mm 2 m/S 761 mmHg 74%
    01:00 +18°C° 0 mm 2 m/S 760 mmHg 75%
    02:00 +19°C° 0 mm 1 m/S 760 mmHg 75%
    03:00 +18°C° 0 mm 1 m/S 760 mmHg 75%
    04:00 +18°C° 0 mm 1 m/S 760 mmHg 75%
    05:00 +19°C° 0 mm 1 m/S 760 mmHg 72%
    06:00 +20°C° 0 mm 1 m/S 760 mmHg 70%
    07:00 +20°C° 0 mm 1 m/S 760 mmHg 68%
    08:00 +20°C° 0.1 mm 1 m/S 760 mmHg 69%
    09:00 +19°C° 0.1 mm 2 m/S 760 mmHg 71%
    10:00 +19°C° 0.1 mm 2 m/S 760 mmHg 72%
    11:00 +21°C° 0 mm 2 m/S 760 mmHg 65%
    12:00 +22°C° 0 mm 3 m/S 760 mmHg 57%
    13:00 +24°C° 0 mm 3 m/S 760 mmHg 50%
    14:00 +22°C° 0 mm 4 m/S 759 mmHg 52%
    15:00 +22°C° 0 mm 4 m/S 759 mmHg 54%
    16:00 +21°C° 0 mm 4 m/S 759 mmHg 56%
    17:00 +19°C° 0 mm 3 m/S 759 mmHg 64%
    18:00 +18°C° 0 mm 2 m/S 759 mmHg 73%
    19:00 +16°C° 0 mm 2 m/S 760 mmHg 82%
    20:00 +16°C° 0 mm 2 m/S 760 mmHg 84%
    21:00 +15°C° 0 mm 1 m/S 760 mmHg 86%
    22:00 +14°C° 0 mm 1 m/S 761 mmHg 89%
    23:00 +14°C° 0 mm 1 m/S 761 mmHg 88%

    28 April, Sonntag

    Zeit Temperatur Niederschläge Wind Luftdruck Luftfeuchtigkeit
    00:00 +14°C° 0 mm 1 m/S 761 mmHg 87%
    01:00 +13°C° 0 mm 1 m/S 761 mmHg 86%
    02:00 +13°C° 0 mm 1 m/S 760 mmHg 83%
    03:00 +13°C° 0 mm 1 m/S 760 mmHg 80%
    04:00 +13°C° 0 mm 1 m/S 760 mmHg 77%
    05:00 +14°C° 0 mm 1 m/S 760 mmHg 72%
    06:00 +15°C° 0 mm 1 m/S 760 mmHg 66%
    07:00 +16°C° 0 mm 1 m/S 760 mmHg 61%
    08:00 +19°C° 0 mm 1 m/S 760 mmHg 56%
    09:00 +19°C° 0 mm 2 m/S 760 mmHg 51%
    10:00 +20°C° 0 mm 2 m/S 760 mmHg 46%
    11:00 +21°C° 0 mm 2 m/S 759 mmHg 46%
    12:00 +22°C° 0 mm 3 m/S 759 mmHg 45%
    13:00 +22°C° 0 mm 4 m/S 759 mmHg 45%
    14:00 +22°C° 0 mm 3 m/S 758 mmHg 47%
    15:00 +21°C° 0 mm 3 m/S 758 mmHg 50%
    16:00 +21°C° 0 mm 3 m/S 758 mmHg 52%
    17:00 +19°C° 0 mm 2 m/S 758 mmHg 58%
    18:00 +17°C° 0 mm 2 m/S 758 mmHg 64%
    19:00 +16°C° 0 mm 1 m/S 758 mmHg 70%
    20:00 +15°C° 0 mm 1 m/S 758 mmHg 70%
    21:00 +15°C° 0 mm 2 m/S 759 mmHg 71%
    22:00 +15°C° 0 mm 2 m/S 759 mmHg 71%
    23:00 +14°C° 0 mm 2 m/S 759 mmHg 73%

    29 April, Montag

    Zeit Temperatur Niederschläge Wind Luftdruck Luftfeuchtigkeit
    00:00 +14°C° 0 mm 2 m/S 759 mmHg 76%
    01:00 +14°C° 0 mm 2 m/S 759 mmHg 78%
    02:00 +13°C° 0 mm 2 m/S 759 mmHg 79%
    03:00 +12°C° 0 mm 3 m/S 758 mmHg 80%
    04:00 +12°C° 0 mm 3 m/S 758 mmHg 81%
    05:00 +13°C° 0 mm 3 m/S 758 mmHg 76%
    06:00 +16°C° 0 mm 3 m/S 758 mmHg 71%
    07:00 +17°C° 0 mm 3 m/S 758 mmHg 67%
    08:00 +18°C° 0 mm 4 m/S 758 mmHg 61%
    09:00 +19°C° 0 mm 4 m/S 758 mmHg 56%
    10:00 +21°C° 0 mm 5 m/S 758 mmHg 50%
    11:00 +21°C° 0 mm 5 m/S 758 mmHg 49%
    12:00 +21°C° 0 mm 5 m/S 758 mmHg 48%
    13:00 +22°C° 0 mm 6 m/S 757 mmHg 47%
    14:00 +21°C° 0 mm 5 m/S 757 mmHg 49%
    15:00 +21°C° 0 mm 5 m/S 757 mmHg 51%
    16:00 +21°C° 0 mm 4 m/S 757 mmHg 52%
    17:00 +19°C° 0 mm 4 m/S 757 mmHg 61%
    18:00 +17°C° 0 mm 3 m/S 757 mmHg 70%
    19:00 +14°C° 0 mm 3 m/S 757 mmHg 79%
    20:00 +14°C° 0 mm 3 m/S 757 mmHg 81%
    21:00 +13°C° 0 mm 3 m/S 758 mmHg 83%
    22:00 +13°C° 0 mm 3 m/S 758 mmHg 85%
    23:00 +13°C° 0 mm 3 m/S 758 mmHg 85%

    30 April, Dienstag

    Zeit Temperatur Niederschläge Wind Luftdruck Luftfeuchtigkeit
    00:00 +12°C° 0 mm 3 m/S 758 mmHg 84%
    01:00 +12°C° 0 mm 4 m/S 757 mmHg 84%
    02:00 +12°C° 0.2 mm 3 m/S 757 mmHg 85%
    03:00 +12°C° 0.2 mm 3 m/S 757 mmHg 86%
    04:00 +13°C° 0.2 mm 2 m/S 757 mmHg 87%
    05:00 +13°C° 0.5 mm 3 m/S 757 mmHg 83%
    06:00 +14°C° 0.5 mm 3 m/S 757 mmHg 79%
    07:00 +16°C° 0.5 mm 3 m/S 757 mmHg 74%
    08:00 +15°C° 0.8 mm 4 m/S 758 mmHg 71%
    09:00 +17°C° 0.8 mm 4 m/S 758 mmHg 67%
    10:00 +17°C° 0.8 mm 5 m/S 758 mmHg 64%
    11:00 +17°C° 0.5 mm 5 m/S 758 mmHg 63%
    12:00 +17°C° 0.5 mm 5 m/S 758 mmHg 62%
    13:00 +19°C° 0.5 mm 5 m/S 758 mmHg 61%
    14:00 +17°C° 0.1 mm 5 m/S 757 mmHg 62%
    15:00 +18°C° 0.1 mm 4 m/S 757 mmHg 63%
    16:00 +18°C° 0.1 mm 4 m/S 757 mmHg 65%
    17:00 +16°C° 0 mm 3 m/S 758 mmHg 70%
    18:00 +15°C° 0 mm 2 m/S 758 mmHg 76%
    19:00 +14°C° 0 mm 1 m/S 758 mmHg 82%
    20:00 +13°C° 0 mm 1 m/S 758 mmHg 83%
    21:00 +13°C° 0 mm 1 m/S 759 mmHg 84%
    22:00 +13°C° 0 mm 1 m/S 759 mmHg 85%
    23:00 +12°C° 0 mm 1 m/S 759 mmHg 83%
    Mehr zeigen